Regional Weather Roundup
Issued by NWS Austin/San Antonio, TX

Home | Current Version | Previous Version | Text Only | Print | Product List | Glossary On
Versions: 1 2 3 4 5 6 7 8 9 10 11 12 13 14 15 16 17 18 19 20 21 22 23 24 25 26 27 28 29 30 31 32 33 34 35 36 37 38 39 40 41 42 43 44 45 46 47 48 49 50
352
ASUS44 KEWX 200410
RWREWX
SOUTH TEXAS REGIONAL WEATHER ROUNDUP
NATIONAL WEATHER SERVICE AUSTIN/SAN ANTONIO TX
1000 PM CST SUN NOV 19 2017

NOTE: "FAIR" INDICATED FEW OR NO CLOUDS BELOW 12,000 FEET WITH NO
SIGNIFICANT WEATHER AND/OR OBSTRUCTIONS TO VISIBILITY.

* - THESE STATIONS ARE NOT NWS OR FAA STATIONS...AND ARE NOT SUBJECT
    TO NWS AND FAA QUALITY CONTROL.

TXZ171-172-183>190-200500-
TEXAS HILL COUNTRY AND EDWARDS PLATEAU

CITY           SKY/WX    TMP DP  RH WIND       PRES   REMARKS
JUNCTION       CLOUDY    40  29  64 CALM      30.22F
*LLANO         CLOUDY    39  32  75 CALM      30.27S
BURNET         CLOUDY    45  31  58 NE3       30.25F
*HORSESHOE BAY CLOUDY    40  32  74 CALM      30.24S
*KERRVILLE     PTCLDY    39  32  76 CALM      30.24F
*FREDERICKSBRG CLOUDY    36  31  83 CALM      30.24S
*ROCKSPRINGS   NOT AVBL
*BOERNE STAGE  PTCLDY    39  32  75 CALM      30.26S
*CASTROVILLE   PTCLDY    49  35  58 CALM      30.26S
HONDO          PTCLDY    53  29  39 MISG      30.24S
*UVALDE        PTCLDY    45  36  71 NE3       30.24F
DEL RIO        PTCLDY    50  32  50 E5        30.20F WCI  48
LAUGHLIN AFB   PTCLDY    48  33  56 S5        30.20F WCI  47
CARRIZO SPRGS  CLOUDY    50  41  71 CALM      30.22F
*EAGLE PASS    CLEAR     48  37  66 E5        30.21F WCI  46
$$

TXZ173-191>194-202-209-217>225-228-200500-
CENTRAL AND SOUTH CENTRAL TEXAS

CITY           SKY/WX    TMP DP  RH WIND       PRES   REMARKS
GEORGETOWN     CLOUDY    43  34  70 N6        30.26F WCI  39
AUSTIN/BERGSTM PTCLDY    43  40  89 CALM      30.25S
AUSTIN/MABRY   CLOUDY    47  34  60 CALM      30.26S
*AUSTIN/EXEC   CLOUDY    48  32  53 CALM      30.25F
*LAGO VISTA    PTCLDY    49  29  45 E6        30.24F WCI  47
SAN MARCOS     PTCLDY    42  33  70 N3        30.25F
NEW BRAUNFELS  PTCLDY    45  32  60 CALM      30.23S
RANDOLPH AFB   PTCLDY    49  34  55 CALM      30.24F
PT SAN ANTONIO MOCLDY    49  35  58 CALM      30.22S
SAN ANTONIO    MOCLDY    52  34  50 CALM      30.25F
STINSON FIELD  MOCLDY    52  35  52 CALM      30.23S
*LA GRANGE     PTCLDY    46  39  77 CALM      30.22S
*GIDDINGS      PTCLDY    44  38  77 CALM      30.25S
*GONZALES      PTCLDY    49  35  57 CALM      30.24S
$$

TXZ163>164-176>182-195>201-210>213-226-227-235-200500-
SOUTHEAST TEXAS

CITY           SKY/WX    TMP DP  RH WIND       PRES   REMARKS
COLLEGE STN    PTCLDY    52  34  50 NE6       30.25S
*BRYAN         PTCLDY    45  35  68 CALM      30.27S
*CALDWELL      PTCLDY    46  37  70 N3        30.26S
*CROCKETT        N/A    N/A N/A N/A MISG        N/A
*BRENHAM       PTCLDY    45  40  81 CALM      30.25F
HUNTSVILLE     CLOUDY    43  38  82 CALM      30.26R
CONROE         CLOUDY    40  39  97 CALM      30.25S
HOUSTON BUSH   MOCLDY    48  39  71 CALM      30.25S
HOUSTON HOBBY  CLOUDY    54  36  50 NE7       30.24S
*HOUSTON SW AP CLOUDY    45  40  80 CALM      30.25S
PEARLAND       CLOUDY    53  42  66 CALM      30.26S
HOUSTON HOOKS  CLOUDY    46  43  89 CALM      30.25S
ELLINGTON FLD  MOCLDY    55  36  47 E3        30.26S
SUGAR LAND     CLOUDY    50  40  68 CALM      30.24S
*HOUSTON EXEC  CLOUDY    45  39  81 NE5       30.26S WCI  42
*CLEVELAND MUN CLOUDY    41  39  94 CALM      30.27S
*WHARTON       CLOUDY    48  37  67 CALM      30.25F
*COLUMBUS      FAIR      44  39  82 CALM      30.25S
*EAGLE LAKE    PTCLDY    49  37  62 CALM      30.24S
$$

TXZ214>216-236>238-200500-
THE UPPER TEXAS COAST

CITY           SKY/WX    TMP DP  RH WIND       PRES   REMARKS
*ORANGE        MOCLDY    42  41  95 CALM      30.27S
PORT ARTHUR    MOCLDY    45  41  86 CALM      30.25R
GALVESTON      CLOUDY    60  38  43 NE12      30.26R
ANGLETON       MOCLDY    48  39  71 CALM      30.25S
*BAY CITY      CLOUDY    49  39  66 CALM      30.24F
PALACIOS       CLOUDY    51  40  65 N5        30.24S
$$

TXZ229>234-239>247-200500-
TEXAS COASTAL BEND AND RIO GRANDE PLAINS

CITY           SKY/WX    TMP DP  RH WIND       PRES   REMARKS
VICTORIA       CLOUDY    50  39  66 NE6       30.24F WCI  48
*BEEVILLE      CLOUDY    53  45  74 E5        30.24F
ROCKPORT       MOCLDY    56  38  50 N3        30.24S
*PORT ARANSAS  NOT AVBL
*PORT LAVACA   CLOUDY    52  36  55 N3        30.25S
*INGLESIDE     NOT AVBL
CORPUS CHRISTI MOCLDY    56  33  42 CALM      30.25R
CORPUS NAS     MOCLDY    62  38  40 NE5       30.24S
*ROBSTOWN      MOCLDY    53  36  53 SW3       30.26R
ALICE          PTCLDY    52  35  52 CALM      30.25R
KINGSVILLE NAS PTCLDY    52  41  66 SW5       30.26R
COTULLA        CLOUDY    56  34  43 E6        30.23F
*FAITH RANCH   CLEAR     54  45  71 NE5       30.22F
LAREDO         CLOUDY    55  35  47 E5        30.24S
$$

TXZ248>255-200500-
DEEP SOUTH TEXAS

CITY           SKY/WX    TMP DP  RH WIND       PRES   REMARKS
BROWNSVILLE    CLEAR     58  46  64 NW7       30.24S
PORT ISABEL    PTCLDY    57  46  66 NW8       30.23S
*SOUTH PADRE   NOT AVBL
HARLINGEN      CLEAR     52  44  74 NW6       30.24S
*HEBBRONVILLE  CLEAR     51  33  50 S5        30.25S
MCALLEN        CLEAR     59  44  57 E6        30.25F
*WESLACO       CLEAR     55  43  65 CALM      30.25S
FALFURRIAS     PTCLDY    53  37  56 CALM      30.25S
EDINBURG       CLEAR     53  43  69 CALM      30.26S
*ZAPATA        CLEAR     54  31  42 CALM      30.23S
$$

TXZ213>215-236>238-242>244-246-247-251-254-255-200500-
CMAN STATIONS

STATION/POSITION TIME  TEMP    WIND        PRES    WAVE
                       AIR SEA DIR/SP/G            HT/PER
                 (UTC) (F)     (DEG/KT/KT) (MB)    (FT/S)
SABINE PASS      0342   55 70   40/  6/  8 1025.8
SEA RIM ST PARK  0400   54     340/  3/  3 1024.9
NORTH JETTY/GLS  0342      67   30/ 13/ 14 1023.6
EAGLE POINT      0342   61 65   50/ 12/ 13 1024.1
MORGANS POINT    0342   58 69   30/  4/  5 1024.2
PORT O`CONNOR    0342   63 67   30/ 12/ 15 1023.5
PORT ARANSAS     0400   62 72  350/  7/  8 1023.9
MALAQUITE BEACH  0342   62 71  340/  5/  7 1023.6
BAFFIN BAY       0342   60 67  360/  5/  5 1024.3
PORT ISABEL      0336   60 73  300/  7/  9 1023.4
$$




USA.gov is the U.S. government's official web portal to all federal, state and local government web resources and services.